FW0562 Weather Reports


time (UTC)temp
F
wind
direction
speed
knots
gust
knots
rain 1hr
in
rain 24hr
in
rain mn
in
humidity
%
barometer
mb
20260506200331 50 53 0.9 5.2 0.00 0.13 0.09 82 1011.5
20260506194821 49 5 0.9 4.3 0.00 0.13 0.09 82 1011.4
20260506193318 49 355 0.0 0.0 0.00 0.13 0.09 81 1011.2
20260506191816 49 355 0.0 0.0 0.00 0.13 0.09 80 1010.9
20260506190304 50 355 0.0 4.3 0.00 0.14 0.09 77 1010.7
20260506184805 51 350 0.0 1.7 0.00 0.14 0.09 75 1010.7
20260506183302 52 350 0.0 3.5 0.00 0.14 0.09 73 1010.6
20260506174754 54 348 1.7 7.0 0.00 0.15 0.09 68 1009.9
20260506173248 55 11 0.9 5.2 0.00 0.15 0.09 68 1009.5
20260506171745 55 0 1.7 7.8 0.00 0.16 0.09 67 1009.4
20260506170245 56 63 0.9 5.2 0.00 0.16 0.09 69 1009.3
20260506164744 56 42 0.9 5.2 0.00 0.17 0.09 70 1009.1
20260506161736 56 348 0.9 4.3 0.00 0.17 0.09 71 1008.9
20260506160237 57 5 0.9 5.2 0.00 0.17 0.09 67 1009.0
20260506154716 57 344 0.9 7.0 0.00 0.17 0.09 65 1008.8
20260506153217 57 350 1.7 7.0 0.00 0.17 0.09 66 1008.9
20260506151712 58 340 2.6 7.0 0.00 0.17 0.09 62 1009.0
20260506150212 59 351 0.9 7.0 0.00 0.17 0.09 65 1008.8
20260506143208 59 5 0.9 6.1 0.00 0.17 0.09 68 1008.7
20260506141706 57 350 0.0 4.3 0.00 0.17 0.09 70 1008.7
20260506140202 56 337 0.0 4.3 0.01 0.17 0.09 72 1008.8
20260506134703 56 330 0.0 0.0 0.01 0.17 0.09 72 1008.9
20260506133200 56 329 0.9 6.1 0.01 0.17 0.09 72 1008.8
20260506131703 56 351 0.9 7.0 0.01 0.17 0.09 73 1008.8
20260506121645 55 341 0.9 4.3 0.00 0.16 0.08 78 1008.6
20260506114639 55 347 0.9 7.0 0.00 0.16 0.08 80 1008.5
20260506113137 55 5 0.9 6.1 0.00 0.16 0.08 82 1008.5
20260506110145 54 299 0.0 5.2 0.00 0.16 0.08 90 1008.5
20260506103133 53 296 0.9 4.3 0.00 0.16 0.08 91 1008.6
20260506101632 52 338 0.9 5.2 0.00 0.16 0.08 93 1008.6
20260506100129 51 282 0.0 5.2 0.00 0.16 0.08 95 1008.5
20260506094629 50 302 0.9 7.0 0.00 0.16 0.08 96 1008.4
20260506093129 50 355 0.9 6.1 0.00 0.16 0.08 96 1008.4
20260506091629 50 329 0.0 6.1 0.00 0.16 0.08 96 1008.3
20260506090134 49 338 0.9 5.2 0.00 0.16 0.08 97 1008.3
20260506084619 49 355 0.0 6.1 0.00 0.16 0.08 97 1007.9
20260506081609 48 308 0.9 6.1 0.00 0.16 0.08 97 1007.8
20260506080121 48 348 0.9 5.2 0.00 0.16 0.08 97 1007.8
20260506073107 48 346 0.9 5.2 0.01 0.16 0.08 97 1007.7
20260506071605 48 355 0.0 4.3 0.01 0.16 0.08 97 1007.6
20260506061603 47 34 1.7 7.0 0.00 0.15 0.07 96 1007.3
20260506060108 47 310 0.9 4.3 0.00 0.15 0.07 96 1007.3
20260506043101 47 342 0.0 1.7 0.00 0.14 0.06 96 1007.1
20260506041603 47 328 0.0 0.0 0.00 0.14 0.06 96 1007.1
20260506040101 47 345 0.0 0.0 0.00 0.14 0.06 96 1007.1
20260506034603 47 345 0.0 1.7 0.01 0.14 0.06 96 1007.2
20260506033103 47 342 0.0 4.3 0.01 0.14 0.06 95 1007.3
20260506031601 47 355 0.0 1.7 0.01 0.14 0.06 95 1007.3
20260506024604 47 350 0.0 3.5 0.00 0.13 0.06 96 1007.4
20260506023102 47 346 0.0 5.2 0.00 0.13 0.06 96 1007.4
20260506021604 47 331 0.0 1.7 0.00 0.13 0.06 96 1007.5
20260506020105 47 341 0.0 4.3 0.01 0.13 0.06 96 1007.5
20260506014602 48 9 0.0 1.7 0.01 0.13 0.06 96 1007.5
20260506013106 48 10 0.0 1.7 0.01 0.13 0.06 96 1007.5
20260506010104 48 338 0.0 2.6 0.00 0.13 0.05 96 1007.6
20260506004540 48 331 0.0 3.5 0.01 0.13 0.05 96 1007.7
20260506001537 49 334 0.0 2.6 0.02 0.13 0.05 96 1007.9
20260506000033 49 0 0.0 0.9 0.02 0.13 0.05 96 1008.0
20260505234532 49 5 0.0 1.7 0.02 0.13 0.04 96 1008.0
20260505233034 49 5 0.0 3.5 0.02 0.13 0.04 96 1008.1
20260505231530 49 338 0.9 5.2 0.02 0.12 0.03 96 1008.3
20260505224529 50 9 0.9 5.2 0.02 0.10 0.02 96 1008.4
20260505223029 50 0 0.0 0.9 0.02 0.10 0.02 97 1008.4
20260505221529 50 0 0.0 1.7 0.02 0.09 0.01 97 1008.4
20260505220030 50 9 0.0 0.0 0.02 0.09 0.00 96 1008.5
20260505213029 50 9 0.0 2.6 0.02 0.08 0.08 96 1008.6
20260505210031 51 5 0.0 0.0 0.02 0.06 0.06 96 1008.7
20260505204529 51 5 0.0 0.0 0.02 0.06 0.06 96 1008.7